Flag for India Weather past 2 weeks in Firozpur, Punjab, India

Now
43 °F

Fog.


Feels Like: 41 °F
Forecast: 37 / 62 °F
Wind: 3 mph from Southeast

Location: Lahore Airport

Current Time: Dec 19, 2014 at 3:35:06 AM

Latest Report: Dec 19, 2014 at 2:55 AM


Visibility: 0 mi

Pressure: 30.21 "Hg

Humidity: 93%

Dew point: 41 °F

Location of FirozpurLocation

Historic Weather in Firozpur — Graph

°F

Firozpur temperature yesterday

Maximum temperature yesterday: 54 °F (at 2:30 PM)
Minimum temperature yesterday: 41 °F (at 6:25 AM)
Average temperature yesterday: 46 °F

Past Weeks' High & Low Weather Summary

 TemperatureHumidityPressure
High81 °F (Dec 4, 3:25 PM)100% (Dec 17, 7:25 AM)30.24 "Hg (Dec 17, 7:25 AM)
Low41 °F (Dec 11, 6:55 AM)20% (Dec 6, 4:25 PM)29.95 "Hg (Dec 7, 3:53 PM)
Average58 °F64%30.07 "Hg
* Reported Dec 4 3:25 AM — Dec 19 2:25 AM, Firozpur, Weather by CustomWeather, © 2014

Note: Actual official high and low records may vary slightly from our data, if they occured in-between our weather recording intervals... More about our weather records

Advertising

Firozpur weather history for previous 24 hours

 ConditionsComfort  
Time TempWeatherWind HumidityBarometerVisibility
2:25 AM
Dec 19
43 °FFog.3 mph93%30.21 "Hg1 mi
1:56 AM43 °FFog.No wind93%30.21 "Hg1 mi
1:25 AM45 °FFog.3 mph93%30.21 "Hg1 mi
12:55 AM45 °FFog.No wind93%30.21 "Hg1 mi
12:25 AM45 °FFog.5 mph93%30.21 "Hg1 mi
11:55 PM
Dec 18
45 °FFog.3 mph93%30.21 "Hg1 mi
11:32 PM45 °FFog.3 mph93%30.21 "Hg1 mi
10:55 PM45 °FFog.No wind93%30.21 "Hg1 mi
10:25 PM45 °FFog.3 mph93%30.21 "Hg1 mi
9:55 PM45 °FFog.5 mph93%30.18 "Hg1 mi
9:25 PM45 °FFog.3 mph93%30.18 "Hg1 mi
8:55 PM45 °FFog.3 mph93%30.18 "Hg1 mi
8:25 PM46 °FFog.5 mph87%30.18 "Hg1 mi
7:55 PM46 °FFog.5 mph87%30.18 "Hg1 mi
7:25 PM46 °FFog.3 mph87%N/A1 mi
6:55 PM46 °FFog.5 mph87%30.15 "Hg1 mi
6:25 PM48 °FFog.3 mph82%30.15 "Hg1 mi
6:00 PM48 °FFog.6 mph94%30.15 "Hg1 mi
5:30 PM50 °FFog.7 mph88%30.15 "Hg1 mi
4:55 PM52 °FFog.7 mph88%30.12 "Hg1 mi
4:30 PM54 °FFog.5 mph82%30.12 "Hg1 mi
4:00 PM54 °FPassing clouds.5 mph77%30.15 "Hg1 mi
3:30 PM54 °FPassing clouds.3 mph77%30.15 "Hg1 mi
3:00 PM54 °FFog.6 mph82%30.15 "Hg1 mi
2:30 PM54 °FFog.5 mph82%30.15 "Hg1 mi
2:00 PM52 °FFog.No wind88%30.15 "Hg1 mi
1:25 PM52 °FFog.5 mph88%30.15 "Hg1 mi
12:55 PM50 °FFog.3 mph94%30.15 "Hg1 mi
12:25 PM48 °FFog.No wind94%30.18 "Hg1 mi
11:55 AM46 °FFog.No wind93%30.18 "Hg1 mi
11:25 AM46 °FFog.No wind100%30.21 "Hg1 mi
10:55 AM46 °FFog.No wind100%30.21 "Hg0 mi
10:25 AM46 °FFog.No wind100%30.21 "Hg0 mi
9:55 AM45 °FFog.No wind100%30.21 "Hg0 mi
8:55 AM43 °FFog.No wind100%30.18 "Hg0 mi
8:25 AM43 °FFog.No wind100%30.18 "Hg0 mi
7:55 AM41 °FFog.No wind100%30.18 "Hg0 mi
7:25 AM41 °FFog.No wind100%30.15 "Hg0 mi
6:55 AM41 °FFog.5 mph100%30.15 "Hg0 mi
6:25 AM41 °FFog.5 mph100%30.15 "Hg0 mi
5:30 AM43 °FFog.3 mph100%30.12 "Hg0 mi
4:55 AM43 °FFog.No wind100%30.12 "Hg0 mi
4:25 AM43 °FFog.No wind100%30.15 "Hg0 mi
3:55 AM45 °FFog.No wind100%30.12 "Hg0 mi
3:25 AM45 °FFog.3 mph100%30.12 "Hg0 mi
Weather by CustomWeather, © 2014

See weather overviewHow to use our weather pages